Springfield, MO

12:45 PM CST on December 17, 2017 (GMT -0600)
Springfield-Branson Regional

Weather History for KSGF - August, 2013

Change the Weather History Date:

Wednesday, August 7, 2013

  Actual Average Record
Temperature  
Mean Temperature 78 °F 79 °F  
Max Temperature 84 °F 90 °F 102 °F (2011)
Min Temperature 71 °F 68 °F 49 °F (1997)
Degree Days  
Heating Degree Days 0 0  
Month to date heating degree days 0 0  
Since 1 June heating degree days 14 9  
Since 1 July heating degree days 0 0  
Cooling Degree Days 13 14  
Month to date cooling degree days 85 98  
Year to date cooling degree days 869 886  
Since 1 June cooling degree days 742 771  
Growing Degree Days 28 (Base 50)    
Moisture  
Dew Point 71 °F    
Average Humidity 82    
Maximum Humidity 94    
Minimum Humidity 69    
Precipitation  
Precipitation 0.51 in 0.11 in 2.41 in (1908)
Month to date precipitation 4.42 0.70  
Year to date precipitation 36.73 27.26  
Snow  
Snow 0.00 in - - ()
Month to date snowfall 0.0  
Since 1 June snowfall 0.0  
Since 1 July snowfall 0.0  
Snow Depth 0.00 in    
Sea Level Pressure  
Sea Level Pressure 29.90 in    
Wind  
Wind Speed 7 mph (SSW)    
Max Wind Speed 30 mph    
Max Gust Speed 44 mph    
Visibility 9 miles    
Events Rain , Thunderstorm    
T = Trace of Precipitation, MM = Missing Value Source: NWS Daily Summary

Daily Weather History Graph

Daily Weather History Graph

Search for Another Location

Airport or City:

Trip Planner

Search our weather history database for the weather conditions in past years. The results will help you decide how hot, cold, wet, or windy it might be!

Date:

Astronomy

Aug. 07, 2013 Rise Set
Actual Time 6:23 AM CDT 8:14 PM CDT
Civil Twilight 5:55 AM CDT 8:42 PM CDT
Nautical Twilight 5:20 AM CDT 9:17 PM CDT
Astronomical Twilight 4:44 AM CDT 9:53 PM CDT
Moon 7:10 AM CDT (8/7) 8:25 PM CDT (8/7)
Length of Visible Light 14h 47m
Length of Day
13h 51m
New Moon, 1% of the Moon is Illuminated
Aug 7
New Moon
Aug 14
First Quarter
Aug 20
Full
Aug 28
Last Quarter
Sep 5
New

Hourly Weather History & Observations

Time (CDT) Temp. Heat Index Dew Point Humidity Pressure Visibility Wind Dir Wind Speed Gust Speed Precip Events Conditions
12:52 AM 77.0 °F - 75.0 °F 94% 29.84 in 10.0 mi SSE 10.4 mph - N/A   Partly Cloudy
1:52 AM 77.0 °F - 75.0 °F 94% 29.80 in 10.0 mi SSE 10.4 mph - N/A   Clear
2:52 AM 77.0 °F - 75.0 °F 94% 29.81 in 10.0 mi South 9.2 mph - N/A   Mostly Cloudy
3:52 AM 78.1 °F - 75.0 °F 90% 29.81 in 10.0 mi South 10.4 mph - N/A   Overcast
4:35 AM 77.0 °F - 75.0 °F 94% 29.89 in 6.0 mi West 12.7 mph 17.3 mph 0.01 in Rain , Thunderstorm Rain
4:49 AM 73.4 °F - 69.8 °F 88% 29.91 in 5.0 mi WNW 21.9 mph 38.0 mph 0.07 in Rain , Thunderstorm Heavy Thunderstorms and Rain
4:52 AM 73.0 °F - 70.0 °F 90% 29.88 in 5.0 mi WNW 13.8 mph 38.0 mph 0.07 in Rain , Thunderstorm Heavy Thunderstorms and Rain
5:01 AM 72.0 °F - 70.0 °F 93% 29.91 in 6.0 mi WNW 19.6 mph 29.9 mph 0.03 in Rain , Thunderstorm Light Thunderstorms and Rain
5:08 AM 72.0 °F - 69.1 °F 91% 29.89 in 2.0 mi WNW 12.7 mph 28.8 mph 0.09 in Rain , Thunderstorm Heavy Thunderstorms and Rain
5:22 AM 72.0 °F - 69.1 °F 91% 29.89 in 10.0 mi West 10.4 mph 25.3 mph 0.23 in Rain , Thunderstorm Light Thunderstorms and Rain
5:41 AM 72.0 °F - 69.1 °F 91% 29.88 in 10.0 mi WNW 5.8 mph - 0.23 in Rain , Thunderstorm Light Rain
5:48 AM 71.6 °F - 69.8 °F 94% 29.88 in 10.0 mi West 3.5 mph - 0.23 in Thunderstorm Thunderstorm
5:52 AM 72.0 °F - 69.1 °F 91% 29.84 in 10.0 mi West 3.5 mph - 0.23 in Thunderstorm Thunderstorm
6:03 AM 72.0 °F - 69.1 °F 91% 29.88 in 10.0 mi NNE 3.5 mph - 0.00 in Rain , Thunderstorm Light Rain
6:31 AM 71.1 °F - 69.1 °F 93% 29.91 in 10.0 mi ESE 6.9 mph - 0.00 in Rain Light Rain
6:52 AM 72.0 °F - 70.0 °F 93% 29.90 in 10.0 mi NE 6.9 mph - 0.00 in Rain Light Rain
7:07 AM 72.0 °F - 70.0 °F 93% 29.97 in 5.0 mi NE 13.8 mph - 0.03 in Rain , Thunderstorm Heavy Thunderstorms and Rain
7:22 AM 72.0 °F - 69.1 °F 91% 29.97 in 4.0 mi NE 13.8 mph - 0.08 in Rain Rain
7:52 AM 71.1 °F - 69.1 °F 93% 29.94 in 6.0 mi NE 10.4 mph - 0.11 in Rain Rain
8:52 AM 72.0 °F - 69.1 °F 91% 29.96 in 8.0 mi East 9.2 mph - 0.08 in Rain Light Rain
9:52 AM 72.0 °F - 69.1 °F 91% 29.92 in 10.0 mi SE 12.7 mph - 0.02 in   Scattered Clouds
10:52 AM 72.0 °F - 69.1 °F 91% 29.93 in 10.0 mi SSE 15.0 mph - 0.00 in   Partly Cloudy
11:52 AM 75.0 °F - 71.1 °F 87% 29.94 in 10.0 mi South 5.8 mph - N/A   Mostly Cloudy
12:38 PM 77.0 °F - 72.0 °F 84% 29.95 in 10.0 mi SSW 12.7 mph - N/A   Scattered Clouds
12:52 PM 78.1 °F - 72.0 °F 81% 29.92 in 10.0 mi South 8.1 mph - N/A   Partly Cloudy
1:52 PM 79.0 °F - 72.0 °F 79% 29.89 in 10.0 mi SSW 11.5 mph - N/A   Clear
2:52 PM 79.0 °F - 71.1 °F 77% 29.89 in 10.0 mi Variable 3.5 mph - N/A   Clear
3:52 PM 79.0 °F - 71.1 °F 77% 29.90 in 10.0 mi WNW 3.5 mph - N/A   Clear
4:52 PM 82.0 °F 86.7 °F 72.0 °F 71% 29.88 in 10.0 mi NNW 4.6 mph - N/A   Clear
5:52 PM 82.9 °F 88.0 °F 72.0 °F 69% 29.89 in 10.0 mi West 3.5 mph - N/A   Clear
6:52 PM 82.9 °F 88.8 °F 73.0 °F 72% 29.88 in 10.0 mi Calm Calm - N/A   Clear
7:52 PM 82.0 °F 87.4 °F 73.0 °F 74% 29.89 in 10.0 mi NE 3.5 mph - N/A   Partly Cloudy
8:52 PM 79.0 °F - 73.0 °F 82% 29.90 in 10.0 mi ENE 3.5 mph - N/A   Clear
9:52 PM 77.0 °F - 73.0 °F 88% 29.91 in 10.0 mi East 4.6 mph - N/A   Mostly Cloudy
10:52 PM 78.1 °F - 73.0 °F 84% 29.92 in 10.0 mi Calm Calm - N/A   Mostly Cloudy
11:52 PM 73.9 °F - 72.0 °F 93% 29.92 in 10.0 mi ESE 3.5 mph - N/A   Clear